Welcome to mirrors.dotsrc.org

All our mirrors of open source software are available via http, https, ftp and an onion service. More information about our mirrors including statistics and contact information is available on our mirror info pages.

For information about dotsrc.org and our other services please go to our website.

Index of /mirrors/cpan/modules/by-authors/id/R/RH/RHANDOM/

File Name  ↓ File Size  ↓ Date  ↓ 
Parent directory/--
Net-Server-0.46.readme19.4 KiB2001-03-05 14:40:09
Net-Server-0.46.tar.gz26.2 KiB2001-03-05 14:48:26
File-NFSLock-1.00.readme4.3 KiB2001-05-25 06:03:03
File-NFSLock-1.00.tar.gz5.3 KiB2001-05-25 06:14:51
File-NFSLock-1.10.readme5.9 KiB2001-07-31 18:22:21
File-NFSLock-1.10.tar.gz6.6 KiB2001-07-31 20:45:45
Mail-Spool-0.50.readme13.0 KiB2001-12-08 04:17:38
Mail-Spool-0.50.tar.gz17.2 KiB2001-12-08 06:07:32
CGI-Ex-1.13.readme15.1 KiB2004-12-02 20:04:18
CGI-Ex-1.13.meta296 B2004-12-02 20:04:38
CGI-Ex-1.13.tar.gz109.7 KiB2004-12-02 20:12:04
CGI-Ex-1.14.readme15.3 KiB2005-02-28 19:44:07
CGI-Ex-1.14.meta296 B2005-02-28 20:15:34
CGI-Ex-1.14.tar.gz112.6 KiB2005-02-28 20:51:00
Taint-Runtime-0.02.readme8.9 KiB2005-02-28 21:53:18
Taint-Runtime-0.02.meta310 B2005-02-28 21:53:24
Taint-Runtime-0.02.tar.gz16.2 KiB2005-03-01 17:16:44
Net-Server-0.88.readme29.7 KiB2005-06-21 21:18:49
Net-Server-0.88.meta415 B2005-06-21 21:19:03
Net-Server-0.88.tar.gz69.4 KiB2005-06-21 21:24:27
Net-Server-0.89.readme30.4 KiB2005-11-23 08:24:25
Net-Server-0.89.meta415 B2005-11-23 08:37:42
Net-Server-0.89.tar.gz71.8 KiB2005-11-23 08:40:11
Net-Server-0.90.readme31.7 KiB2005-12-05 21:14:26
Net-Server-0.90.meta415 B2005-12-05 21:14:46
Net-Server-0.90.tar.gz73.1 KiB2005-12-05 21:19:07
Net-Server-0.91.readme39.3 KiB2006-03-08 22:17:14
Net-Server-0.91.meta415 B2006-03-08 22:22:02
Net-Server-0.91.tar.gz78.4 KiB2006-03-08 22:27:33
Net-Server-0.92.readme39.9 KiB2006-03-22 17:18:52
Net-Server-0.92.meta415 B2006-03-22 17:18:59
Net-Server-0.92.tar.gz79.0 KiB2006-03-22 17:26:29
Net-Server-0.93.readme40.2 KiB2006-03-24 19:51:43
Net-Server-0.93.meta415 B2006-03-24 19:57:50
Net-Server-0.93.tar.gz79.9 KiB2006-03-24 20:03:25
CGI-Ex-2.00.readme13.7 KiB2006-05-30 22:13:05
CGI-Ex-2.00.meta296 B2006-05-30 22:13:18
CGI-Ex-2.00.tar.gz211.0 KiB2006-05-30 22:19:08
CGI-Ex-2.01.readme13.7 KiB2006-05-31 18:06:32
CGI-Ex-2.01.meta296 B2006-05-31 18:09:05
CGI-Ex-2.01.tar.gz211.8 KiB2006-05-31 18:11:46
CGI-Ex-2.02.readme13.7 KiB2006-06-08 21:42:39
CGI-Ex-2.02.meta296 B2006-06-08 21:45:38
CGI-Ex-2.02.tar.gz206.8 KiB2006-06-08 21:51:19
CGI-Ex-2.03.readme13.7 KiB2006-06-11 07:10:44
CGI-Ex-2.03.meta296 B2006-06-11 07:15:47
CGI-Ex-2.03.tar.gz207.3 KiB2006-06-11 07:19:17
CGI-Ex-2.04.readme13.7 KiB2006-07-10 17:26:33
CGI-Ex-2.04.meta296 B2006-07-10 17:30:18
CGI-Ex-2.04.tar.gz213.5 KiB2006-07-10 17:33:32
CGI-Ex-2.05.readme13.7 KiB2006-07-10 18:54:40
Net-Server-0.94.readme42.2 KiB2006-07-12 02:49:17
Net-Server-0.94.meta415 B2006-07-12 02:49:27
Net-Server-0.94.tar.gz82.0 KiB2006-07-12 02:54:02
CGI-Ex-2.05.meta296 B2006-07-19 20:15:28
CGI-Ex-2.05.tar.gz213.9 KiB2006-07-19 20:17:29
CGI-Ex-2.06.readme13.7 KiB2006-07-21 14:27:30
CGI-Ex-2.06.meta296 B2006-07-21 14:29:10
CGI-Ex-2.06.tar.gz213.7 KiB2006-07-21 14:32:25
Data-URIEncode-0.10.readme10.2 KiB2006-10-23 20:28:28
Data-URIEncode-0.10.meta312 B2006-10-23 20:29:02
Data-URIEncode-0.10.tar.gz8.4 KiB2006-10-23 20:34:09
CGI-Ex-2.07.readme13.7 KiB2007-01-30 15:40:50
CGI-Ex-2.07.meta299 B2007-01-30 15:41:28
CGI-Ex-2.07.tar.gz214.5 KiB2007-01-30 15:43:41
Net-Server-0.96.readme46.4 KiB2007-02-03 08:19:13
Net-Server-2.002.readme46.4 KiB2007-02-03 08:19:13
Net-Server-0.99.readme46.4 KiB2007-02-03 08:19:13
Net-Server-2.000.readme46.4 KiB2007-02-03 08:19:13
Net-Server-2.006.readme46.4 KiB2007-02-03 08:19:13
Net-Server-2.004.readme46.4 KiB2007-02-03 08:19:13
Net-Server-2.007.readme46.4 KiB2007-02-03 08:19:13
Net-Server-2.005.readme46.4 KiB2007-02-03 08:19:13
Net-Server-0.97.readme46.4 KiB2007-02-03 08:19:13
Net-Server-2.003.readme46.4 KiB2007-02-03 08:19:13
Net-Server-2.001.readme46.4 KiB2007-02-03 08:19:13
Net-Server-0.95.readme46.4 KiB2007-02-03 08:19:13
Net-Server-0.95.meta418 B2007-02-03 08:19:25
Net-Server-0.95.tar.gz86.5 KiB2007-02-03 08:23:04
CGI-Ex-2.08.readme13.7 KiB2007-03-02 19:08:21
CGI-Ex-2.08.meta299 B2007-03-02 19:08:38
CGI-Ex-2.08.tar.gz220.1 KiB2007-03-02 19:12:25
Data-URIEncode-0.11.readme10.6 KiB2007-03-06 23:05:39
Net-YAR-1.063.readme41.8 KiB2007-03-09 18:37:17
Net-YAR-1.063.meta302 B2007-03-09 18:41:22
Net-YAR-1.063.tar.gz26.7 KiB2007-03-09 19:08:06
Net-Server-0.96.meta418 B2007-03-26 14:58:54
Net-Server-0.96.tar.gz88.8 KiB2007-03-26 15:01:13
Net-YAR-1.065.readme42.2 KiB2007-03-26 20:54:47
Net-YAR-1.065.meta302 B2007-03-26 20:57:28
Net-YAR-1.065.tar.gz27.0 KiB2007-03-26 20:59:33
Data-URIEncode-0.11.meta315 B2007-04-02 17:48:47
CGI-Ex-2.09.readme13.7 KiB2007-04-05 18:46:46
CGI-Ex-2.09.meta299 B2007-04-05 22:30:13
CGI-Ex-2.09.tar.gz224.0 KiB2007-04-05 22:45:34
Data-URIEncode-0.11.tar.gz8.7 KiB2007-04-06 00:11:36
Net-YAR-1.067.readme42.2 KiB2007-04-06 03:47:07
Net-YAR-1.067.meta450 B2007-04-06 03:48:31
Net-YAR-1.067.tar.gz27.4 KiB2007-04-06 03:49:44
CGI-Ex-2.10.readme13.7 KiB2007-04-27 18:51:54
CGI-Ex-2.10.meta299 B2007-04-27 18:57:16
CGI-Ex-2.10.tar.gz228.7 KiB2007-04-27 18:59:54
CGI-Ex-Template-XS-0.01.meta363 B2007-04-27 19:09:42
CGI-Ex-Template-XS-0.01.tar.gz56.5 KiB2007-04-27 19:12:54
CGI-Ex-2.11.readme13.7 KiB2007-05-07 23:31:10
Template-Parser-CET-0.01.readme13.7 KiB2007-05-08 16:04:10
Template-Parser-CET-0.01.meta405 B2007-05-08 16:56:02
CGI-Ex-2.11.meta299 B2007-05-08 16:59:22
CGI-Ex-Template-XS-0.02.meta363 B2007-05-08 17:00:15
CGI-Ex-2.11.tar.gz238.5 KiB2007-05-08 17:03:14
CGI-Ex-Template-XS-0.02.tar.gz57.8 KiB2007-05-08 17:03:25
Template-Parser-CET-0.01.tar.gz31.2 KiB2007-05-08 17:05:09
Template-Parser-CET-0.02.readme13.7 KiB2007-05-10 19:46:09
Template-Parser-CET-0.02.meta405 B2007-05-10 19:46:47
Template-Parser-CET-0.02.tar.gz31.3 KiB2007-05-10 19:48:09
CGI-Ex-2.12.readme13.7 KiB2007-05-11 22:19:53
CGI-Ex-2.12.meta299 B2007-05-11 22:20:38
CGI-Ex-2.12.tar.gz241.8 KiB2007-05-11 22:25:45
CGI-Ex-2.13.readme13.7 KiB2007-05-22 15:59:56
CGI-Ex-2.13.meta299 B2007-05-22 21:17:22
CGI-Ex-Template-XS-0.03.meta363 B2007-05-22 21:19:42
CGI-Ex-2.13.tar.gz259.6 KiB2007-05-22 21:24:38
CGI-Ex-Template-XS-0.03.tar.gz59.6 KiB2007-05-22 21:24:50
Template-Alloy-1.001.meta316 B2007-06-07 22:01:29
Template-Alloy-XS-1.001.meta362 B2007-06-07 22:04:47
Template-Alloy-1.001.tar.gz136.3 KiB2007-06-07 22:07:18
Template-Alloy-XS-1.001.tar.gz61.3 KiB2007-06-07 22:09:01
Template-Alloy-1.002.readme0 B2007-06-08 17:24:42
Template-Alloy-1.002.meta316 B2007-06-08 17:25:12
Template-Alloy-1.002.tar.gz140.0 KiB2007-06-08 17:27:48
Template-Alloy-XS-1.002.meta363 B2007-06-08 17:28:39
Template-Alloy-XS-1.002.tar.gz61.3 KiB2007-06-08 17:31:09
CGI-Ex-2.14.readme13.7 KiB2007-06-12 16:43:47
CGI-Ex-2.14.meta340 B2007-06-12 16:43:59
CGI-Ex-Template-XS-0.05.meta404 B2007-06-12 16:57:28
CGI-Ex-2.14.tar.gz170.7 KiB2007-06-12 17:06:47
CGI-Ex-Template-XS-0.05.tar.gz8.0 KiB2007-06-12 17:10:11
Template-Parser-CET-0.04.readme16.0 KiB2007-06-12 22:22:26
Template-Parser-CET-0.04.meta406 B2007-06-12 22:23:05
Template-Parser-CET-0.04.tar.gz35.7 KiB2007-06-12 22:25:10
CGI-Ex-Template-XS-0.06.meta404 B2007-06-14 14:55:30
CGI-Ex-Template-XS-0.06.tar.gz8.0 KiB2007-06-14 14:58:17
Taint-Runtime-0.03.readme9.0 KiB2007-06-14 17:55:15
Taint-Runtime-0.03.meta313 B2007-06-14 17:58:43
Taint-Runtime-0.03.tar.gz18.5 KiB2007-06-14 18:01:54
Template-Alloy-1.003.readme0 B2007-06-20 19:59:59
CGI-Ex-2.15.readme13.7 KiB2007-06-20 20:07:26
CGI-Ex-2.15.meta340 B2007-06-20 20:27:53
Template-Alloy-1.003.meta316 B2007-06-20 20:32:16
Template-Alloy-1.003.tar.gz140.1 KiB2007-06-20 20:35:38
CGI-Ex-2.15.tar.gz152.3 KiB2007-06-20 20:35:49
Template-Alloy-1.004.readme0 B2007-06-21 20:10:55
Template-Alloy-1.004.meta316 B2007-06-21 20:15:02
Template-Alloy-1.004.tar.gz141.9 KiB2007-06-21 20:17:05
CGI-Ex-2.16.readme13.7 KiB2007-06-21 22:06:32
CGI-Ex-2.16.meta340 B2007-06-22 16:55:49
CGI-Ex-2.16.tar.gz152.6 KiB2007-06-22 17:13:17
CGI-Ex-2.17.readme13.9 KiB2007-06-26 20:29:02
CGI-Ex-2.17.meta340 B2007-06-26 20:31:41
CGI-Ex-2.17.tar.gz154.8 KiB2007-06-26 20:35:17
Template-Alloy-1.005.readme0 B2007-06-28 15:05:48
Template-Alloy-1.005.meta316 B2007-06-28 15:06:12
Template-Alloy-1.005.tar.gz142.1 KiB2007-06-28 15:11:32
Template-Alloy-1.006.readme0 B2007-07-03 17:21:29
Template-Alloy-1.006.meta316 B2007-07-03 17:21:36
Template-Alloy-1.006.tar.gz142.3 KiB2007-07-03 17:23:36
CGI-Ex-2.18.readme13.9 KiB2007-07-24 20:02:19
CGI-Ex-2.18.meta340 B2007-07-24 20:03:27
CGI-Ex-2.18.tar.gz159.4 KiB2007-07-24 21:04:32
Net-Server-0.97.meta418 B2007-07-25 16:23:46
Net-Server-0.97.tar.gz90.0 KiB2007-07-25 16:29:47
CGI-Ex-2.19.readme13.9 KiB2007-10-01 21:07:01
Template-Alloy-1.007.readme0 B2007-10-05 16:34:00
Template-Alloy-1.007.meta384 B2007-10-05 16:55:55
Template-Alloy-1.007.tar.gz143.5 KiB2007-10-05 17:05:37
CGI-Ex-2.19.meta442 B2007-10-05 21:38:59
CGI-Ex-2.19.tar.gz160.8 KiB2007-10-05 21:43:47
CGI-Ex-2.20.readme13.9 KiB2007-10-08 18:11:40
CGI-Ex-2.20.meta442 B2007-10-08 18:11:48
CGI-Ex-2.20.tar.gz161.1 KiB2007-10-08 19:01:17
CGI-Ex-2.21.readme13.9 KiB2007-10-18 20:35:48
CGI-Ex-2.21.meta442 B2007-10-18 20:35:55
CGI-Ex-2.21.tar.gz161.3 KiB2007-10-18 22:05:48
Template-Alloy-1.008.readme0 B2007-10-26 19:29:37
Template-Alloy-1.008.meta421 B2007-10-26 19:46:25
Template-Alloy-1.008.tar.gz144.3 KiB2007-10-26 19:48:49
Template-Alloy-1.009.readme0 B2007-11-01 20:37:29
Template-Parser-CET-0.05.readme16.0 KiB2007-11-07 15:53:50
Template-Parser-CET-0.05.meta475 B2007-11-07 15:58:17
Template-Alloy-1.009.meta421 B2007-11-07 20:05:32
Template-Alloy-1.009.tar.gz146.0 KiB2007-11-07 20:25:13
Template-Parser-CET-0.05.tar.gz35.8 KiB2007-11-07 20:26:39
Template-Alloy-1.010.readme0 B2007-12-10 20:32:37
Template-Alloy-1.010.meta353 B2007-12-10 20:32:45
Template-Alloy-XS-1.003.meta363 B2007-12-10 20:38:13
Template-Alloy-1.010.tar.gz147.4 KiB2007-12-10 20:41:53
Template-Alloy-XS-1.003.tar.gz61.4 KiB2007-12-10 20:42:25
Template-Alloy-1.011.readme0 B2007-12-10 21:48:11
Template-Alloy-1.011.meta353 B2007-12-10 21:48:19
Template-Alloy-1.011.tar.gz147.9 KiB2007-12-10 21:52:16
CGI-Ex-2.22.readme13.9 KiB2007-12-15 06:27:47
CGI-Ex-2.22.meta340 B2007-12-15 07:14:57
CGI-Ex-2.22.tar.gz170.3 KiB2007-12-15 07:22:41
CGI-Ex-2.23.readme13.9 KiB2007-12-20 20:21:40
CGI-Ex-2.23.meta340 B2007-12-21 16:33:05
CGI-Ex-2.23.tar.gz172.3 KiB2007-12-23 06:28:00
Net-YAR-1.069.readme42.4 KiB2008-01-09 20:44:00
Net-YAR-1.069.meta450 B2008-01-09 20:57:42
Net-YAR-1.069.tar.gz27.8 KiB2008-01-09 20:59:30
CGI-Ex-2.24.readme14.0 KiB2008-02-26 17:49:13
CGI-Ex-2.24.meta340 B2008-02-26 18:03:22
CGI-Ex-2.24.tar.gz176.0 KiB2008-02-26 18:48:22
Template-Alloy-1.012.readme114.0 KiB2008-04-10 19:56:55
Template-Alloy-1.012.meta353 B2008-04-10 20:15:36
Template-Alloy-1.012.tar.gz183.3 KiB2008-04-10 20:48:05
Net-YAR-1.070.readme42.4 KiB2008-06-04 20:31:13
Net-YAR-1.070.meta450 B2008-06-04 20:31:26
Net-YAR-1.070.tar.gz28.1 KiB2008-06-04 20:33:33
CGI-Ex-2.27.readme14.0 KiB2008-09-15 20:49:49
CGI-Ex-2.27.meta340 B2008-09-15 20:49:56
Template-Alloy-1.013.readme113.8 KiB2008-09-17 20:46:31
Template-Alloy-1.013.meta353 B2008-09-18 15:49:26
Template-Alloy-1.013.tar.gz184.5 KiB2008-09-18 15:53:46
CGI-Ex-2.27.tar.gz181.7 KiB2008-12-07 04:28:06
Net-YAR-1.076.readme42.6 KiB2010-01-12 18:18:37
Net-YAR-1.076.meta551 B2010-01-12 18:18:45
CGI-Ex-2.32.readme14.0 KiB2010-02-25 21:00:52
CGI-Ex-2.32.meta456 B2010-02-25 21:04:49
CGI-Ex-2.32.tar.gz182.1 KiB2010-02-26 16:48:48
File-KeePass-0.01.readme11.5 KiB2010-06-28 15:12:10
File-KeePass-0.01.meta470 B2010-06-28 15:28:14
File-KeePass-0.01.tar.gz13.1 KiB2010-06-29 14:52:50
File-KeePass-Agent-0.01.readme4.0 KiB2010-07-02 15:18:48
File-KeePass-Agent-0.01.meta643 B2010-07-02 15:24:32
File-KeePass-Agent-0.01.tar.gz8.0 KiB2010-07-02 15:28:46
AutoRole-0.01.readme6.3 KiB2010-07-02 15:40:33
AutoRole-0.01.meta550 B2010-07-02 15:41:03
AutoRole-0.01.tar.gz6.3 KiB2010-07-02 15:41:58
File-KeePass-Agent-0.02.readme4.0 KiB2010-07-05 15:38:21
File-KeePass-Agent-0.02.meta668 B2010-07-05 15:40:19
File-KeePass-Agent-0.02.tar.gz8.3 KiB2010-07-05 15:42:38
AutoRole-0.02.readme6.3 KiB2010-07-08 14:41:19
AutoRole-0.02.meta550 B2010-07-08 14:42:08
AutoRole-0.02.tar.gz6.3 KiB2010-07-08 14:45:23
Net-Server-0.99.meta624 B2010-07-13 19:25:08
Net-Server-0.99.tar.gz99.2 KiB2010-07-13 19:27:21
AutoRole-0.03.readme6.3 KiB2010-07-14 13:26:45
AutoRole-0.03.meta550 B2010-07-14 13:26:49
AutoRole-0.03.tar.gz6.4 KiB2010-07-14 13:33:20
File-KeePass-0.02.readme11.5 KiB2010-12-03 23:01:43
File-KeePass-0.02.meta573 B2010-12-04 04:21:30
File-KeePass-0.02.tar.gz15.7 KiB2010-12-04 04:33:41
File-KeePass-0.03.readme11.5 KiB2010-12-07 06:04:12
File-KeePass-0.03.meta573 B2010-12-07 06:04:25
File-KeePass-0.03.tar.gz15.9 KiB2010-12-07 06:06:57
Net-YAR-1.076.tar.gz29.2 KiB2010-12-16 16:37:00
Template-Alloy-1.015.readme106.7 KiB2010-12-29 05:30:34
Template-Alloy-1.015.meta547 B2010-12-31 03:28:41
Template-Alloy-1.015.tar.gz184.0 KiB2010-12-31 03:32:19
Template-Alloy-1.016.readme108.0 KiB2011-01-26 16:57:48
Template-Alloy-1.016.meta547 B2011-01-26 16:59:37
Template-Alloy-1.016.tar.gz185.2 KiB2011-01-26 17:02:09
AutoRole-0.04.readme6.3 KiB2011-10-06 16:55:55
AutoRole-0.04.meta550 B2011-10-06 16:56:14
AutoRole-0.04.tar.gz6.4 KiB2011-10-06 16:59:07
CGI-Ex-2.37.readme14.0 KiB2012-02-09 15:19:46
CGI-Ex-2.37.meta569 B2012-02-10 00:08:58
CGI-Ex-2.37.tar.gz188.9 KiB2012-02-10 00:14:29
CGI-Ex-2.38.readme14.0 KiB2012-03-03 00:51:06
CGI-Ex-2.38.meta569 B2012-03-03 00:53:46
CGI-Ex-2.38.tar.gz188.9 KiB2012-03-03 02:32:34
Net-YAR-1.082.readme42.8 KiB2012-05-11 14:30:03
Net-YAR-1.082.meta624 B2012-05-11 15:52:14
Net-YAR-1.082.tar.gz31.8 KiB2012-05-11 15:55:29
Net-YAR-1.083.readme42.8 KiB2012-05-11 17:33:04
Net-YAR-1.083.meta624 B2012-05-11 17:33:10
Net-YAR-1.083.tar.gz31.8 KiB2012-05-11 17:35:22
Net-Server-2.000.meta625 B2012-05-30 15:38:34
Net-Server-2.000.tar.gz112.9 KiB2012-05-30 15:41:07
Net-Server-2.001.meta625 B2012-05-30 21:46:55
Net-Server-2.001.tar.gz114.2 KiB2012-05-30 21:48:13
Net-Server-2.002.meta625 B2012-05-31 21:42:05
Net-Server-2.002.tar.gz115.9 KiB2012-05-31 21:43:35
Net-Server-2.003.meta625 B2012-06-06 19:26:57
Net-Server-2.003.tar.gz123.9 KiB2012-06-06 19:31:21
Net-Server-2.004.meta625 B2012-06-08 17:19:00
Net-Server-2.004.tar.gz125.9 KiB2012-06-08 17:22:50
Net-Server-2.005.meta625 B2012-06-12 19:38:29
Net-Server-2.005.tar.gz128.7 KiB2012-06-12 19:40:55
File-KeePass-Agent-0.03.readme4.1 KiB2012-06-14 15:07:42
File-KeePass-Agent-0.03.meta668 B2012-06-14 15:08:59
File-KeePass-Agent-0.03.tar.gz11.7 KiB2012-06-14 15:11:00
Net-Server-2.006.meta625 B2012-06-20 22:49:12
Net-Server-2.006.tar.gz128.9 KiB2012-06-20 22:51:22
File-KeePass-2.00.readme25.8 KiB2012-09-13 04:05:37
File-KeePass-2.00.meta580 B2012-09-13 04:12:19
File-KeePass-Agent-2.00.readme4.2 KiB2012-09-13 04:43:54
File-KeePass-Agent-2.00.meta670 B2012-09-13 04:44:05
File-KeePass-2.00.tar.gz35.1 KiB2012-09-13 04:48:56
File-KeePass-Agent-2.00.tar.gz15.6 KiB2012-09-13 04:49:10
File-KeePass-2.01.readme25.8 KiB2012-09-13 14:15:43
File-KeePass-2.01.meta580 B2012-09-13 14:16:18
File-KeePass-2.01.tar.gz35.1 KiB2012-09-13 14:17:11
File-KeePass-2.02.readme25.8 KiB2012-09-13 15:18:41
File-KeePass-2.02.meta606 B2012-09-13 15:20:02
File-KeePass-2.02.tar.gz35.2 KiB2012-09-13 15:22:40
File-KeePass-Agent-2.01.readme4.2 KiB2012-09-13 16:02:15
File-KeePass-Agent-2.01.meta670 B2012-09-13 16:02:26
File-KeePass-Agent-2.01.tar.gz15.7 KiB2012-09-13 16:03:01
File-KeePass-2.03.readme25.9 KiB2012-09-15 22:15:49
File-KeePass-2.03.meta606 B2012-09-15 22:19:12
File-KeePass-2.03.tar.gz36.1 KiB2012-09-15 22:25:43
Net-Server-2.007.meta625 B2013-01-10 07:38:15
Net-Server-2.007.tar.gz130.6 KiB2013-01-10 07:47:04
Template-Alloy-1.018.readme110.2 KiB2013-08-22 01:52:23
Template-Alloy-1.018.meta874 B2013-08-22 22:31:40
Template-Alloy-1.018.tar.gz193.0 KiB2013-08-22 22:34:05
Template-Alloy-1.020.readme110.2 KiB2013-08-23 17:09:08
Template-Alloy-1.019.readme110.2 KiB2013-08-23 17:09:08
Template-Alloy-1.019.meta874 B2013-08-23 17:29:45
Template-Alloy-1.019.tar.gz193.2 KiB2013-08-23 17:32:41
Template-Alloy-1.020.meta874 B2013-09-20 18:58:15
Template-Alloy-1.020.tar.gz193.3 KiB2013-09-20 18:59:38
Net-Server-2.008.readme343 B2014-05-12 15:37:13
Net-Server-2.008.meta1002 B2014-05-12 18:20:00
Net-Server-2.008.tar.gz116.8 KiB2014-05-12 18:22:26
Net-Server-2.009.readme69.6 KiB2014-05-24 01:51:10
Net-Server-2.009.meta1.0 KiB2017-08-10 19:05:48
Net-Server-2.009.tar.gz143.3 KiB2017-08-10 21:13:01
CGI-Ex-2.48.readme14.0 KiB2018-12-07 15:43:43
CGI-Ex-2.48.meta1.5 KiB2018-12-07 15:43:49
CGI-Ex-2.48.tar.gz193.3 KiB2018-12-07 15:45:08
Net-Server-2.010.readme69.6 KiB2020-07-11 19:34:53
Net-Server-2.011.readme69.6 KiB2020-07-11 19:34:53
Net-Server-2.010.meta1.1 KiB2021-03-22 15:21:55
Net-Server-2.010.tar.gz142.5 KiB2021-03-22 15:23:31
Template-Alloy-1.022.readme110.2 KiB2021-03-22 15:27:04
Template-Alloy-1.021.readme110.2 KiB2021-03-22 15:27:04
Template-Alloy-1.021.meta928 B2021-03-22 15:38:58
Template-Alloy-1.021.tar.gz188.2 KiB2021-03-22 15:41:09
Template-Alloy-1.022.meta928 B2021-03-22 15:45:01
Template-Alloy-1.022.tar.gz188.1 KiB2021-03-22 15:46:39
Net-Server-2.011.meta1.1 KiB2022-12-02 00:29:08
Net-Server-2.011.tar.gz146.6 KiB2022-12-02 00:35:10
Net-Server-2.014.readme69.7 KiB2022-12-02 01:19:39
Net-Server-2.012.readme69.7 KiB2022-12-02 01:19:39
Net-Server-2.013.readme69.7 KiB2022-12-02 01:19:39
Net-Server-2.012.meta1.1 KiB2022-12-02 04:18:51
Net-Server-2.012.tar.gz146.6 KiB2022-12-02 04:19:54
Net-Server-2.013.meta1.1 KiB2022-12-03 01:56:27
Net-Server-2.013.tar.gz151.0 KiB2022-12-03 01:57:05
Net-Server-2.014.meta1.1 KiB2023-03-14 17:13:11
Net-Server-2.014.tar.gz151.2 KiB2023-03-14 17:16:00
CGI-Ex-2.55.meta4.5 KiB2024-01-09 16:20:18
CGI-Ex-2.55.readme13.3 KiB2024-01-09 16:20:18
CGI-Ex-2.55.tar.gz207.5 KiB2024-01-09 16:26:02
CHECKSUMS78.1 KiB2024-01-10 16:26:02